Location: Buffalo
(50.8000°N, 110.6833°W)
Time: 05:23:18
(UTC+00:00)

N. Korean satellite - Visible Passes

Search period start: 28 November 2021 00:00
Search period end: 08 December 2021 00:00
Orbit: 447 x 495 km, 97.3° (Epoch: 27 November)

Date Brightness Start Highest point End Pass type
(mag) Time Alt. Az. Time Alt. Az. Time Alt. Az.
28 Nov 10.2 01:08:13 10° W 01:08:56 10° W 01:09:37 10° WNW visible
28 Nov 7.6 12:24:59 10° NNE 12:28:16 42° E 12:31:31 10° S visible
28 Nov 8.0 13:58:57 10° NNW 14:01:11 17° WNW 14:03:25 10° WSW visible
29 Nov 9.5 00:37:27 10° SW 00:40:12 20° W 00:42:56 10° NW visible
29 Nov 9.1 11:57:01 10° NE 11:59:39 20° E 12:02:15 10° SE visible
29 Nov 7.1 13:29:52 10° N 13:32:56 31° WNW 13:35:58 10° SW visible
30 Nov 8.1 00:08:11 10° S 00:11:35 41° W 00:14:57 10° NNW visible
30 Nov 10.0 11:30:34 10° E 11:30:54 10° E 11:31:14 10° E visible
30 Nov 6.3 13:01:10 10° N 13:04:33 68° WNW 13:07:55 10° SSW visible
01 Dec 7.1 12:32:42 10° NNE 12:36:04 53° E 12:39:22 10° S visible
01 Dec 8.2 14:07:02 10° NNW 14:08:52 14° WNW 14:10:43 10° W visible
02 Dec 9.7 00:45:39 10° SW 00:48:02 17° W 00:50:25 10° NW visible
02 Dec 8.7 12:04:35 10° NE 12:07:27 25° E 12:10:17 10° SSE visible
02 Dec 7.4 13:37:44 10° N 13:40:37 26° WNW 13:43:28 10° SW visible
03 Dec 8.5 00:16:08 10° SSW 00:19:22 33° W 00:22:35 10° NNW visible
03 Dec 9.8 11:37:13 10° ENE 11:38:42 12° E 11:40:11 10° ESE visible
03 Dec 6.4 13:08:55 10° N 13:12:15 54° WNW 13:15:33 10° SSW visible
04 Dec 6.7 12:40:22 10° NNE 12:43:46 67° E 12:47:07 10° S visible
04 Dec 8.3 14:15:11 10° NW 14:16:29 12° WNW 14:17:47 10° W visible
05 Dec 9.8 00:53:53 10° WSW 00:55:48 14° W 00:57:42 10° WNW visible
05 Dec 8.3 12:12:07 10° NNE 12:15:09 30° E 12:18:10 10° SSE visible
05 Dec 7.6 13:45:34 10° NNW 13:48:14 22° WNW 13:50:53 10° WSW visible
06 Dec 8.9 00:24:01 10° SSW 00:27:04 27° W 00:30:06 10° NW visible
06 Dec 9.5 11:44:24 10° NE 11:46:26 15° E 11:48:27 10° SE visible
06 Dec 6.7 13:16:37 10° N 13:19:51 43° WNW 13:23:05 10° SW visible
06 Dec 7.2 23:54:59 10° S 23:58:26 58° W 00:01:53 10° NNW visible
07 Dec 6.3 12:47:58 10° NNE 12:51:23 83° ESE 12:54:46 10° SSW visible
